Location: Banff
(51.1667°N, 115.5667°W)
Time: 22:57:26
(UTC+00:00)

deb Explorer IX - Pass Details

Date: 05 December 2020
Orbit: 536 x 1104 km, 38.8° (Epoch: 24 January)

Event Time Altitude Azimuth Distance (km) Brightness Sun altitude
Rises 00:46:54 0° 254° (WSW) 3,692 ? -10.4°
Reaches altitude 10° 00:50:13 10° 241° (WSW) 2,647 ? -10.9°
Maximum altitude 00:55:01 23° 191° (SSW) 1,738 ? -11.6°
Drops below altitude 10° 00:59:18 10° 141° (SE) 2,332 ? -12.3°
Sets 01:02:02 0° 126° (SE) 3,154 ? -12.7°
Enters shadow 01:02:11 - 126° (SE) 3,203 ? -12.7°
